Time,TemperatureF,DewpointF,PressureIn,WindDirection,WindDirectionDegrees,WindSpeedMPH,WindSpeedGustMPH,Humidity,HourlyPrecipIn,Conditions,Clouds,dailyrainin,SoftwareType,DateUTC
2013-07-15 00:01:00,74.0,72.0,30.30,North,0,0.0,0.0,93,0.00,,,0.00,,2013-07-15 04:01:00,
2013-07-15 00:11:00,74.0,72.0,30.30,North,0,0.0,0.0,93,0.00,,,0.00,,2013-07-15 04:11:00,
2013-07-15 00:22:00,74.0,72.0,30.30,North,0,0.0,0.0,94,0.00,,,0.00,,2013-07-15 04:22:00,
2013-07-15 00:33:00,74.0,72.0,30.29,North,0,0.0,0.0,94,0.00,,,0.00,,2013-07-15 04:33:00,
2013-07-15 00:42:00,73.0,71.0,30.29,North,0,0.0,0.0,94,0.00,,,0.00,,2013-07-15 04:42:00,
2013-07-15 00:53:00,73.0,71.0,30.29,North,0,0.0,0.0,94,0.00,,,0.00,,2013-07-15 04:53:00,
2013-07-15 01:02:00,73.0,71.0,30.29,North,0,0.0,1.0,95,0.00,,,0.00,,2013-07-15 05:02:00,
2013-07-15 01:12:00,73.0,71.0,30.29,North,0,0.0,1.0,95,0.00,,,0.00,,2013-07-15 05:12:00,
2013-07-15 01:22:00,73.0,71.0,30.29,WNW,301,1.0,4.0,94,0.00,,,0.00,,2013-07-15 05:22:00,
2013-07-15 01:32:00,73.0,71.0,30.29,North,0,0.0,1.0,94,0.00,,,0.00,,2013-07-15 05:32:00,
2013-07-15 01:43:00,73.0,71.0,30.29,North,0,0.0,0.0,93,0.00,,,0.00,,2013-07-15 05:43:00,
2013-07-15 01:53:00,73.0,71.0,30.29,North,0,0.0,3.0,93,0.00,,,0.00,,2013-07-15 05:53:00,
2013-07-15 02:02:00,73.0,71.0,30.29,North,0,0.0,0.0,92,0.00,,,0.00,,2013-07-15 06:02:00,
2013-07-15 02:12:00,73.0,71.0,30.29,North,0,0.0,0.0,92,0.00,,,0.00,,2013-07-15 06:12:00,
2013-07-15 02:22:00,73.0,71.0,30.29,North,0,0.0,0.0,92,0.00,,,0.00,,2013-07-15 06:22:00,
2013-07-15 02:32:00,73.0,71.0,30.28,North,0,0.0,0.0,93,0.00,,,0.00,,2013-07-15 06:32:00,
2013-07-15 02:42:00,73.0,71.0,30.29,North,0,0.0,0.0,93,0.00,,,0.00,,2013-07-15 06:42:00,
2013-07-15 02:53:00,73.0,71.0,30.29,North,0,0.0,1.0,93,0.00,,,0.00,,2013-07-15 06:53:00,
2013-07-15 03:01:00,73.0,71.0,30.28,North,0,0.0,1.0,94,0.00,,,0.00,,2013-07-15 07:01:00,
2013-07-15 03:11:00,73.0,71.0,30.29,North,0,0.0,3.0,94,0.00,,,0.00,,2013-07-15 07:11:00,
2013-07-15 03:22:00,73.0,71.0,30.29,North,0,0.0,0.0,94,0.00,,,0.00,,2013-07-15 07:22:00,
2013-07-15 03:33:00,73.0,71.0,30.28,North,0,0.0,1.0,94,0.00,,,0.00,,2013-07-15 07:33:00,
2013-07-15 03:44:00,73.0,71.0,30.29,North,0,0.0,0.0,94,0.00,,,0.00,,2013-07-15 07:44:00,
2013-07-15 03:53:00,73.0,71.0,30.29,WNW,301,1.0,3.0,95,0.00,,,0.00,,2013-07-15 07:53:00,
2013-07-15 04:02:00,73.0,71.0,30.28,North,0,0.0,3.0,95,0.00,,,0.00,,2013-07-15 08:02:00,
2013-07-15 04:22:00,73.0,71.0,30.29,North,0,0.0,3.0,95,0.00,,,0.00,,2013-07-15 08:22:00,
2013-07-15 04:32:00,73.0,71.0,30.28,NW,304,2.0,6.0,95,0.00,,,0.00,,2013-07-15 08:32:00,
2013-07-15 04:43:00,73.0,71.0,30.28,North,0,0.0,5.0,95,0.00,,,0.00,,2013-07-15 08:43:00,
2013-07-15 04:53:00,73.0,71.0,30.28,NW,304,1.0,6.0,95,0.00,,,0.00,,2013-07-15 08:53:00,
2013-07-15 05:02:00,73.0,71.0,30.28,North,0,0.0,6.0,95,0.00,,,0.00,,2013-07-15 09:02:00,
2013-07-15 05:12:00,73.0,71.0,30.29,WNW,303,2.0,6.0,95,0.00,,,0.00,,2013-07-15 09:12:00,
2013-07-15 05:22:00,73.0,71.0,30.29,NW,305,2.0,5.0,95,0.00,,,0.00,,2013-07-15 09:22:00,
2013-07-15 05:32:00,73.0,71.0,30.29,North,0,0.0,5.0,95,0.00,,,0.00,,2013-07-15 09:32:00,
2013-07-15 05:43:00,73.0,71.0,30.28,North,0,0.0,4.0,95,0.00,,,0.00,,2013-07-15 09:43:00,
2013-07-15 05:52:00,73.0,72.0,30.28,North,0,0.0,3.0,96,0.00,,,0.00,,2013-07-15 09:52:00,
2013-07-15 06:02:00,73.0,72.0,30.29,North,0,0.0,0.0,96,0.00,,,0.00,,2013-07-15 10:02:00,
2013-07-15 06:11:00,72.0,71.0,30.29,North,0,0.0,0.0,96,0.00,,,0.00,,2013-07-15 10:11:00,
2013-07-15 06:22:00,72.0,71.0,30.29,North,0,0.0,0.0,96,0.00,,,0.00,,2013-07-15 10:22:00,
2013-07-15 06:32:00,72.0,71.0,30.29,North,0,0.0,0.0,96,0.00,,,0.00,,2013-07-15 10:32:00,
2013-07-15 06:43:00,72.0,71.0,30.29,North,0,0.0,0.0,96,0.00,,,0.00,,2013-07-15 10:43:00,
2013-07-15 06:53:00,72.0,71.0,30.29,North,0,0.0,0.0,97,0.00,,,0.00,,2013-07-15 10:53:00,
2013-07-15 07:02:00,72.0,71.0,30.29,North,0,0.0,0.0,97,0.00,,,0.00,,2013-07-15 11:02:00,
2013-07-15 07:11:00,73.0,72.0,30.29,North,0,0.0,0.0,97,0.00,,,0.00,,2013-07-15 11:11:00,
2013-07-15 07:22:00,73.0,72.0,30.29,North,0,0.0,0.0,97,0.00,,,0.00,,2013-07-15 11:22:00,
2013-07-15 07:32:00,73.0,72.0,30.30,North,0,0.0,1.0,97,0.00,,,0.00,,2013-07-15 11:32:00,
2013-07-15 07:42:00,74.0,73.0,30.30,North,0,0.0,1.0,96,0.00,,,0.00,,2013-07-15 11:42:00,
2013-07-15 07:52:00,74.0,73.0,30.30,North,0,0.0,1.0,96,0.00,,,0.00,,2013-07-15 11:52:00,
2013-07-15 08:01:00,75.0,74.0,30.29,North,0,0.0,1.0,96,0.00,,,0.00,,2013-07-15 12:01:00,
2013-07-15 08:11:00,75.0,73.0,30.29,North,0,0.0,2.0,95,0.00,,,0.00,,2013-07-15 12:11:00,
2013-07-15 08:22:00,76.0,74.0,30.30,North,0,0.0,0.0,94,0.00,,,0.00,,2013-07-15 12:22:00,
2013-07-15 08:32:00,77.0,75.0,30.30,North,0,0.0,0.0,94,0.00,,,0.00,,2013-07-15 12:32:00,
2013-07-15 08:42:00,78.0,75.0,30.30,North,0,0.0,1.0,91,0.00,,,0.00,,2013-07-15 12:42:00,
2013-07-15 08:52:00,78.0,75.0,30.30,North,0,0.0,1.0,90,0.00,,,0.00,,2013-07-15 12:52:00,
2013-07-15 09:02:00,79.0,75.0,30.30,North,0,0.0,5.0,88,0.00,,,0.00,,2013-07-15 13:02:00,
2013-07-15 09:11:00,80.0,75.0,30.30,North,0,0.0,5.0,86,0.00,,,0.00,,2013-07-15 13:11:00,
2013-07-15 09:22:00,80.0,75.0,30.30,North,0,0.0,5.0,86,0.00,,,0.00,,2013-07-15 13:22:00,
2013-07-15 09:33:00,80.0,75.0,30.30,North,0,0.0,1.0,86,0.00,,,0.00,,2013-07-15 13:33:00,
2013-07-15 09:43:00,82.0,76.0,30.29,North,0,0.0,1.0,83,0.00,,,0.00,,2013-07-15 13:43:00,
2013-07-15 10:02:00,82.0,76.0,30.29,North,0,0.0,3.0,82,0.00,,,0.00,,2013-07-15 14:02:00,
2013-07-15 10:33:00,84.0,77.0,30.29,NW,318,2.0,5.0,79,0.00,,,0.00,,2013-07-15 14:33:00,
2013-07-15 10:58:00,84.0,76.0,30.28,NW,323,2.0,13.0,78,0.00,,,0.00,,2013-07-15 14:58:00,
2013-07-15 11:40:00,85.0,76.0,30.28,North,0,0.0,4.0,75,0.00,,,0.00,,2013-07-15 15:40:00,
2013-07-15 11:47:00,86.0,77.0,30.27,NW,306,1.0,5.0,74,0.00,,,0.00,,2013-07-15 15:47:00,
2013-07-15 11:53:00,86.0,77.0,30.27,NW,306,1.0,5.0,74,0.00,,,0.00,,2013-07-15 15:53:00,
2013-07-15 12:08:00,86.0,77.0,30.27,North,0,0.0,1.0,74,0.00,,,0.00,,2013-07-15 16:08:00,
2013-07-15 12:24:00,86.0,77.0,30.27,North,0,0.0,5.0,75,0.00,,,0.00,,2013-07-15 16:24:00,
2013-07-15 12:33:00,86.0,75.0,30.27,North,0,0.0,5.0,71,0.00,,,0.00,,2013-07-15 16:33:00,
2013-07-15 12:47:00,87.0,76.0,30.26,North,0,0.0,4.0,70,0.00,,,0.00,,2013-07-15 16:47:00,
2013-07-15 12:52:00,87.0,76.0,30.26,NW,324,1.0,10.0,69,0.00,,,0.00,,2013-07-15 16:52:00,
2013-07-15 13:08:00,87.0,76.0,30.26,NW,324,1.0,10.0,69,0.00,,,0.00,,2013-07-15 17:08:00,
2013-07-15 13:13:00,87.0,76.0,30.26,North,0,0.0,1.0,70,0.00,,,0.00,,2013-07-15 17:13:00,
2013-07-15 13:23:00,87.0,75.0,30.25,North,0,0.0,7.0,68,0.00,,,0.00,,2013-07-15 17:23:00,
2013-07-15 13:36:00,88.0,77.0,30.25,North,0,0.0,5.0,69,0.00,,,0.00,,2013-07-15 17:36:00,
2013-07-15 14:07:00,88.0,78.0,30.24,NW,307,3.0,9.0,72,0.00,,,0.00,,2013-07-15 18:07:00,
2013-07-15 14:45:00,89.0,77.0,30.23,North,0,0.0,5.0,69,0.00,,,0.00,,2013-07-15 18:45:00,
2013-07-15 14:56:00,89.0,78.0,30.23,North,0,0.0,4.0,70,0.00,,,0.00,,2013-07-15 18:56:00,
2013-07-15 15:05:00,90.0,78.0,30.22,NW,316,1.0,6.0,68,0.00,,,0.00,,2013-07-15 19:05:00,
2013-07-15 15:37:00,90.0,77.0,30.22,North,0,0.0,7.0,66,0.00,,,0.00,,2013-07-15 19:37:00,
2013-07-15 15:56:00,91.0,79.0,30.22,North,0,0.0,2.0,68,0.00,,,0.00,,2013-07-15 19:56:00,
2013-07-15 16:07:00,91.0,78.0,30.21,North,0,0.0,3.0,66,0.00,,,0.00,,2013-07-15 20:07:00,
2013-07-15 16:29:00,92.0,79.0,30.21,North,0,0.0,4.0,66,0.00,,,0.00,,2013-07-15 20:29:00,
2013-07-15 16:37:00,91.0,78.0,30.21,North,0,0.0,3.0,65,0.00,,,0.00,,2013-07-15 20:37:00,
2013-07-15 16:55:00,91.0,78.0,30.20,NW,318,3.0,7.0,67,0.00,,,0.00,,2013-07-15 20:55:00,
2013-07-15 17:03:00,91.0,79.0,30.20,North,0,0.0,5.0,68,0.00,,,0.00,,2013-07-15 21:03:00,
2013-07-15 17:23:00,91.0,79.0,30.20,NNW,330,2.0,6.0,69,0.00,,,0.00,,2013-07-15 21:23:00,
2013-07-15 17:39:00,90.0,78.0,30.19,North,0,0.0,10.0,68,0.00,,,0.00,,2013-07-15 21:39:00,
2013-07-15 17:48:00,91.0,79.0,30.19,North,0,0.0,6.0,68,0.00,,,0.00,,2013-07-15 21:48:00,
2013-07-15 18:03:00,91.0,78.0,30.19,North,0,0.0,6.0,66,0.00,,,0.00,,2013-07-15 22:03:00,
2013-07-15 18:22:00,91.0,78.0,30.18,North,0,0.0,2.0,66,0.00,,,0.00,,2013-07-15 22:22:00,
2013-07-15 18:34:00,91.0,78.0,30.18,North,0,0.0,3.0,66,0.00,,,0.00,,2013-07-15 22:34:00,
2013-07-15 18:43:00,91.0,78.0,30.18,North,0,0.0,1.0,65,0.00,,,0.00,,2013-07-15 22:43:00,
2013-07-15 18:54:00,91.0,78.0,30.18,North,0,0.0,4.0,65,0.00,,,0.00,,2013-07-15 22:54:00,
2013-07-15 19:06:00,91.0,77.0,30.18,North,0,0.0,4.0,64,0.00,,,0.00,,2013-07-15 23:06:00,
2013-07-15 19:40:00,91.0,78.0,30.18,North,0,0.0,1.0,66,0.00,,,0.00,,2013-07-15 23:40:00,
2013-07-15 19:47:00,90.0,78.0,30.18,North,0,0.0,1.0,67,0.00,,,0.00,,2013-07-15 23:47:00,
2013-07-15 19:53:00,90.0,78.0,30.18,North,0,0.0,4.0,68,0.00,,,0.00,,2013-07-15 23:53:00,
2013-07-15 20:03:00,89.0,77.0,30.18,North,0,0.0,1.0,68,0.00,,,0.00,,2013-07-16 00:03:00,
2013-07-15 20:16:00,88.0,77.0,30.17,North,0,0.0,5.0,70,0.00,,,0.00,,2013-07-16 00:16:00,
2013-07-15 20:34:00,87.0,77.0,30.17,North,0,0.0,1.0,72,0.00,,,0.00,,2013-07-16 00:34:00,
2013-07-15 20:48:00,87.0,77.0,30.17,North,0,0.0,3.0,72,0.00,,,0.00,,2013-07-16 00:48:00,
2013-07-15 21:10:00,86.0,78.0,30.17,North,0,0.0,0.0,77,0.00,,,0.00,,2013-07-16 01:10:00,
2013-07-15 21:28:00,85.0,77.0,30.17,North,0,0.0,1.0,77,0.00,,,0.00,,2013-07-16 01:28:00,
2013-07-15 21:37:00,85.0,77.0,30.17,North,0,0.0,1.0,78,0.00,,,0.00,,2013-07-16 01:37:00,
2013-07-15 22:11:00,84.0,77.0,30.18,North,0,0.0,0.0,79,0.00,,,0.00,,2013-07-16 02:11:00,
2013-07-15 22:35:00,83.0,77.0,30.19,North,0,0.0,0.0,81,0.00,,,0.00,,2013-07-16 02:35:00,
2013-07-15 23:09:00,82.0,76.0,30.19,North,0,0.0,0.0,83,0.00,,,0.00,,2013-07-16 03:09:00,
2013-07-15 23:47:00,80.0,76.0,30.19,North,0,0.0,0.0,89,0.00,,,0.00,,2013-07-16 03:47:00,